Regional Weather Roundup
Issued by NWS

Home | Current Version | Previous Version | Text Only | Print | Product List | Glossary Off
Versions: 1 2 3 4 5 6 7 8 9 10 11 12 13 14 15 16 17 18 19 20 21 22 23 24 25 26 27 28 29 30 31 32 33 34 35 36 37 38 39 40 41 42 43 44 45 46 47 48 49 50

000
ASUS44 KMEG 301410
RWRTN
TENNESSEE HOURLY STATE WEATHER ROUNDUP
NATIONAL WEATHER SERVICE MEMPHIS TN
900 AM CDT SUN APR 30 2017

TNZ002-004-019-021-049-052-054-088>092-301500-
WEST TENNESSEE

CITY           SKY/WX    TMP DP  RH WIND       PRES   REMARKS
MEMPHIS INTL   TSTM      70  68  93 S15G24    29.77F FOG
NWS MEMPHIS      N/A     73 N/A N/A MISG        N/A
JACKSON        CLOUDY    73  69  87 S9G18     29.82F
DYERSBURG      LGT RAIN  68  67  96 E6        29.78S
SOMERVILLE     MOSUNNY   73  70  88 S10       29.79S
UNION CITY     PTSUNNY   68  64  88 SE15G25   29.78F
BOLIVAR        CLOUDY    72  68  88 SE10      29.82F
HUNTINGDON     CLOUDY    68  66  94 SE8       29.83F FOG
LEXINGTON      PTSUNNY   73  66  78 SE5G13    29.87F
SAVANNAH       PTSUNNY   73  66  78 S10G18    29.88S
$$

TNZ008-025-027-028-033-062-065-066-301500-
NORTH MIDDLE TENNESSEE

CITY           SKY/WX    TMP DP  RH WIND       PRES   REMARKS
NASHVILLE      CLOUDY    76  66  71 S9        29.97S
PORTLAND       PTSUNNY   73  66  78 S12       29.96S
CLARKSVILLE    CLOUDY    71  63  75 SE8       29.89F
SMYRNA         CLOUDY    75  66  73 S10       29.98S
COOKEVILLE     PTSUNNY   75  66  73 S12G20    30.01S
GALLATIN       CLOUDY    75  68  78 SE5       30.00R
CROSSVILLE     CLOUDY    70  63  78 S9G20     30.08R
$$

TNZ061-075-076-078-094-096-097-301500-
SOUTH MIDDLE TENNESSEE

CITY           SKY/WX    TMP DP  RH WIND       PRES   REMARKS
FAYETTEVILLE   PTSUNNY   75  66  73 S15G24    29.99S
TULLAHOMA      SUNNY     73  63  68 S14       30.01S
WINCHESTER     PTSUNNY   75  64  69 S10       30.02S
MCMINNVILLE    PTSUNNY   75  66  73 S8        30.01S
COLUMBIA       PTSUNNY   75  75 100 S9        29.93S
SHELBYVILLE    PTSUNNY   77  66  69 S14       29.99S
$$

TNZ017-018-042-046-047-301500-
NORTHEAST TENNESSEE

CITY           SKY/WX    TMP DP  RH WIND       PRES   REMARKS
TRI CITIES     PTSUNNY   77  62  59 S8        30.07S
ELIZABETHTON   PTSUNNY   77  64  65 W5        30.07F
$$

TNZ012-013-036-069-073-074-301500-
CENTRAL EAST TENNESSEE

CITY           SKY/WX    TMP DP  RH WIND       PRES   REMARKS
KNOXVILLE      CLOUDY    77  64  64 SW13      30.04R
OAK RIDGE      CLOUDY    77  65  66 MISG      30.05R
DOWNTOWN KNOXV SUNNY     79  68  69 VRB5      30.04R
GATLINBURG     SUNNY     77  64  65 NE5       30.04R
MORRISTOWN     SUNNY     77  64  65 CALM      30.05R
JACKSBORO      SUNNY     77  64  65 SW8       30.07R
$$

TNZ083-085-099-301500-
SOUTHEAST TENNESSEE

CITY           SKY/WX    TMP DP  RH WIND       PRES   REMARKS
CHATTANOOGA    CLOUDY    73  68  84 SE9       30.05S
$$

SKY/WX REPORTED AS FAIR MEANS FEW OR NO CLOUDS BELOW
12 THOUSAND FEET.





USA.gov is the U.S. government's official web portal to all federal, state and local government web resources and services.